Regional Weather Roundup
Issued by NWS Goodland, KS

Home | Current Version | Previous Version | Graphics & Text | Print | Product List | Glossary On
Versions: 1 2 3 4 5 6 7 8 9 10 11 12 13 14 15 16 17 18 19 20 21 22 23 24 25 26 27 28 29 30 31 32 33 34 35 36 37 38 39 40 41 42 43 44 45 46 47 48 49 50
000
ASUS43 KGLD 302008
RWRGLD

GOODLAND FORECAST AREA HOURLY WEATHER ROUNDUP
NATIONAL WEATHER SERVICE GOODLAND KS
200 PM MDT TUE JUN 30 2015

...OFFICIAL OBSERVATIONS...

CITY           SKY/WX    TMP DP  RH WIND       PRES   REMARKS
GOODLAND KS    MOSUNNY   93  47  20 VRB6G18   29.99F
HILL CITY KS   MOSUNNY  102  49  16 W12G18    29.90F
IMPERIAL NEB   SUNNY     98  50  19 SW13G21   29.94F
MCCOOK NEB     SUNNY     98  52  21 W7        29.90F
AKRON CO       SUNNY     90  44  20 NW6       30.06F
BURLINGTON CO  MOSUNNY   91  46  21 VRB5G18   30.04F
LIMON CO       SUNNY     85  56  37 SW6       30.13F
$$

...UNOFFICIAL OBSERVATIONS...

CITY           SKY/WX    TMP DP  RH WIND       PRES   REMARKS
COLBY KS       SUNNY     97  54  23 S8        29.97F
GOVE KS          N/A     98  32  10 MISG        N/A
NORTON KS      SUNNY     99  36  11 S8G16     29.89F
SHARON SPRINGS   N/A     94  53  24 S6          N/A
KIT CARSON CO    N/A     91  50  24 MISG        N/A
$$


USA.gov is the U.S. government's official web portal to all federal, state and local government web resources and services.